Weather History for KUIN - March, 2015

Change the Weather History Date:

Wednesday, March 18, 2015

  Actual Average Record
Temperature  
Mean Temperature 40 °F 43 °F  
Max Temperature 48 °F 52 °F 81 °F (2012)
Min Temperature 31 °F 33 °F 6 °F (1960)
Degree Days  
Heating Degree Days 25 22  
Month to date heating degree days 436 463  
Since 1 July heating degree days 5102 4805  
Cooling Degree Days 0 0  
Month to date cooling degree days 0 0  
Year to date cooling degree days 0 0  
Moisture  
Dew Point 21 °F    
Average Humidity 48    
Maximum Humidity 64    
Minimum Humidity 31    
Precipitation  
Precipitation 0.00 in 0.08 in 1.24 in (1992)
Month to date precipitation 0.20 1.37  
Year to date precipitation 2.24 4.77  
Sea Level Pressure  
Sea Level Pressure 30.27 in    
Wind  
Wind Speed 7 mph (ESE)    
Max Wind Speed 16 mph    
Max Gust Speed 22 mph    
Visibility 10 miles    
Events      
T = Trace of Precipitation, MM = Missing Value Source: NWS Daily Summary

Daily Weather History Graph

Daily Weather History Graph

Search for Another Location

Airport or City:

Trip Planner

Search our weather history database for the weather conditions in past years. The results will help you decide how hot, cold, wet, or windy it might be!

Date:

Astronomy

Mar. 18, 2015 Rise Set
Actual Time 7:11 AM CDT 7:14 PM CDT
Civil Twilight 6:44 AM CDT 7:41 PM CDT
Nautical Twilight 6:13 AM CDT 8:13 PM CDT
Astronomical Twilight 5:41 AM CDT 8:45 PM CDT
Moon 5:54 AM CDT (3/18) 5:30 PM CDT (3/18)
Length of Visible Light 12h 56m
Length of Day
12h 02m
Waning Crescent, 4% of the Moon is Illuminated
Mar 18
Waning Crescent
Mar 20
New
Mar 27
First Quarter
Apr 4
Full
Apr 11
Last Quarter

Hourly Weather History & Observations

Time (CDT) Temp. Windchill Dew Point Humidity Pressure Visibility Wind Dir Wind Speed Gust Speed Precip Events Conditions
12:54 AM 35.1 °F 31.0 °F 21.9 °F 59% 30.34 in 10.0 mi NE 4.6 mph - N/A   Clear
1:54 AM 36.0 °F 33.3 °F 21.9 °F 57% 30.34 in 10.0 mi NE 3.5 mph - N/A   Clear
2:54 AM 34.0 °F 29.8 °F 23.0 °F 64% 30.33 in 10.0 mi NNE 4.6 mph - N/A   Clear
3:54 AM 34.0 °F 28.8 °F 21.9 °F 61% 30.32 in 10.0 mi NE 5.8 mph - N/A   Clear
4:54 AM 34.0 °F 28.8 °F 21.0 °F 59% 30.31 in 10.0 mi East 5.8 mph - N/A   Clear
5:54 AM 34.0 °F 31.0 °F 19.9 °F 56% 30.33 in 10.0 mi ENE 3.5 mph - N/A   Clear
6:54 AM 33.1 °F 27.7 °F 21.9 °F 64% 30.33 in 10.0 mi ENE 5.8 mph - N/A   Clear
7:54 AM 35.1 °F 30.1 °F 21.9 °F 59% 30.33 in 10.0 mi East 5.8 mph - N/A   Clear
8:54 AM 36.0 °F 30.3 °F 23.0 °F 59% 30.33 in 10.0 mi East 6.9 mph - N/A   Clear
9:54 AM 39.0 °F 32.3 °F 21.0 °F 49% 30.32 in 10.0 mi SE 10.4 mph - N/A   Clear
10:54 AM 42.1 °F 36.1 °F 19.9 °F 41% 30.32 in 10.0 mi SE 10.4 mph - N/A   Clear
11:54 AM 45.0 °F 39.3 °F 19.0 °F 36% 30.32 in 10.0 mi SSE 11.5 mph - N/A   Scattered Clouds
12:54 PM 45.0 °F 39.3 °F 17.1 °F 33% 30.30 in 10.0 mi SE 11.5 mph - N/A   Overcast
1:54 PM 46.9 °F - 18.0 °F 32% 30.26 in 10.0 mi SSE 11.5 mph - N/A   Mostly Cloudy
2:54 PM 45.0 °F 40.6 °F 18.0 °F 34% 30.24 in 10.0 mi SE 8.1 mph - N/A   Mostly Cloudy
3:54 PM 46.0 °F 41.0 °F 19.0 °F 34% 30.22 in 10.0 mi SE 10.4 mph - N/A   Overcast
4:54 PM 45.0 °F 40.1 °F 17.1 °F 33% 30.21 in 10.0 mi ESE 9.2 mph - N/A   Overcast
5:54 PM 44.1 °F 38.6 °F 19.0 °F 37% 30.20 in 10.0 mi ESE 10.4 mph - N/A   Overcast
6:54 PM 43.0 °F 38.8 °F 21.0 °F 42% 30.20 in 10.0 mi SSE 6.9 mph - N/A   Overcast
7:54 PM 42.1 °F 38.4 °F 21.0 °F 43% 30.20 in 10.0 mi SSE 5.8 mph - N/A   Overcast
8:54 PM 41.0 °F 37.1 °F 23.0 °F 49% 30.20 in 10.0 mi ESE 5.8 mph - N/A   Overcast
9:54 PM 39.9 °F 37.8 °F 26.1 °F 58% 30.21 in 10.0 mi SSE 3.5 mph - N/A   Overcast
10:54 PM 41.0 °F 37.1 °F 24.1 °F 51% 30.20 in 10.0 mi ESE 5.8 mph - N/A   Overcast
11:54 PM 39.9 °F 35.8 °F 25.0 °F 55% 30.20 in 10.0 mi ESE 5.8 mph - N/A   Overcast